Location: Unspecified
(41.5000°N, 0.0000°E)
Time: 16:58:41
(UTC+00:00)

A-11 Canister half - Pass Details

Date: 01 July 2019
Orbit: 1526 x 1683 km, 47.3° (Epoch: 17 July)

Event Time Altitude Azimuth Distance (km) Brightness Sun altitude
Exits shadow 03:37:46 - 259° (W) 4,455 10.9 -8.6°
Reaches altitude 10° 03:39:52 10° 261° (W) 3,784 10.6 -8.3°
Maximum altitude 03:49:25 69° 345° (NNW) 1,637 9.3 -6.9°
Drops below altitude 10° 03:58:44 10° 69° (ENE) 3,701 12.5 -5.6°
Sets 04:01:48 0° 72° (ENE) 4,679 13.2 -5.1°
